This is the latest recevied weather packets stored in our database for station/object KF4CQ. If no packets are shown the sender has not sent any weather packets the latest 10 day(s).
| Time | Temp. | Humidity | Pressure | Rain* | Wind** | Luminosity | Snow |
|---|---|---|---|---|---|---|---|
| 1777574485 | 31.11° C | 53% | 1011.7 hPa | 0 mm | - | 678 W/m² | - |
| 1777572660 | 31.67° C | 54% | 1012 hPa | 0 mm | - | 186 W/m² | - |
| 1777572359 | 31.11° C | 56% | 1012 hPa | 0 mm | - | 165 W/m² | - |
| 1777572056 | 30.56° C | 56% | 1011.9 hPa | 0 mm | - | 902 W/m² | - |
| 1777571454 | 31.11° C | 54% | 1011.9 hPa | 0 mm | - | 879 W/m² | - |
| 1777571150 | 31.67° C | 54% | 1011.9 hPa | 0 mm | - | 851 W/m² | - |
| 1777570541 | 30.56° C | 55% | 1012.2 hPa | 0 mm | - | 835 W/m² | - |
| 1777570238 | 30.56° C | 56% | 1012.4 hPa | 0 mm | - | 822 W/m² | - |
| 1777569933 | 30° C | 56% | 1012.4 hPa | 0 mm | - | 925 W/m² | - |
| 1777569630 | 30.56° C | 56% | 1012.4 hPa | 0 mm | - | 183 W/m² | - |
| 1777569326 | 30.56° C | 56% | 1012.8 hPa | 0 mm | - | 235 W/m² | - |
| 1777569022 | 30.56° C | 54% | 1012.8 hPa | 0 mm | - | 861 W/m² | - |
| 1777568719 | 30.56° C | 52% | 1013 hPa | 0 mm | - | 858 W/m² | - |
| 1777568417 | 30.56° C | 53% | 1012.9 hPa | 0 mm | - | 797 W/m² | - |
| 1777568114 | 30.56° C | 53% | 1013.2 hPa | 0 mm | - | 817 W/m² | - |
| 1777564778 | 30.56° C | 60% | 1013.1 hPa | 0 mm | - | 552 W/m² | - |
| 1777563261 | 27.78° C | 67% | 1013.4 hPa | 0 mm | - | 337 W/m² | - |
| 1777562959 | 28.89° C | 67% | 1013.4 hPa | 0 mm | - | 205 W/m² | - |
| 1777562654 | 28.89° C | 66% | 1013.4 hPa | 0 mm | - | 154 W/m² | - |
| 1777562348 | 28.33° C | 67% | 1013.5 hPa | 0 mm | - | 357 W/m² | - |
| 1777561132 | 27.78° C | 70% | 1013.2 hPa | 0 mm | - | 598 W/m² | - |
| 1777560827 | 27.78° C | 71% | 1013.3 hPa | 0 mm | - | 490 W/m² | - |
| 1777560223 | 28.33° C | 70% | 1013.4 hPa | 0 mm | - | 570 W/m² | - |
| 1777556578 | 25.56° C | 80% | 1013.2 hPa | 0 mm | - | 345 W/m² | - |
| 1777555974 | 25.56° C | 80% | 1013 hPa | 0 mm | - | 350 W/m² | - |
* Rain latest hour (hover to see other rain measurements)
** Current wind speed in m/s (hover to see current wind gust speed)